Regional Weather Roundup
Issued by NWS

Home | Current Version | Previous Version | Text Only | Print | Product List | Glossary Off
Versions: 1 2 3 4 5 6 7 8 9 10 11 12 13 14 15 16 17 18 19 20 21 22 23 24 25 26 27 28 29 30 31 32 33 34 35 36 37 38 39 40 41 42 43 44 45 46 47 48 49 50

000
ASUS45 KCYS 121910
RWRWY

WYOMING REGIONAL WEATHER ROUNDUP
NATIONAL WEATHER SERVICE CHEYENNE WY
100 PM MDT SAT JUL 12 2014

NOTE:  "FAIR" INDICATES FEW OR NO CLOUDS BELOW 12,000 FEET
WITH NO SIGNIFICANT WEATHER AND/OR OBSTRUCTIONS TO VISIBILITY.

WYZ001-122000-
YELLOWSTONE NATIONAL PARK

CITY           SKY/WX    TMP DP  RH WIND       PRES   REMARKS
LK YELLOWSTONE   N/A     63  49  60 VRB3      30.50S
W YELLOWSTONE  NOT AVBL

$$
WYZ002>013-054>058-071-098>099-122000-
NORTHERN WYOMING

CITY           SKY/WX    TMP DP  RH WIND       PRES   REMARKS
JACKSON        NOT AVBL
CODY           SUNNY     75  57  53 N7        30.30S
GREYBULL       SUNNY     84  49  29 NW9       30.21F
WORLAND        SUNNY     83  51  33 N8        30.22S
SHERIDAN       SUNNY     81  57  43 NW12G20   30.25R
BUFFALO        PTSUNNY   76  54  46 N17       30.30R
GILLETTE       PTSUNNY   79  56  45 N14       30.23S
HULETT         MOCLDY    77  61  57 MISG      30.23
NEWCASTLE      FAIR      79  52  38 N7        30.21

$$
WYZ014>020-022>026-101>103-122000-
CENTRAL WYOMING

CITY           SKY/WX    TMP DP  RH WIND       PRES   REMARKS
BIG PINEY      MOSUNNY   78  46  32 VRB6      30.39F
PINEDALE       CLEAR     77  41  27 W5        30.40F
DUBOIS         FAIR      77  46  33 SE12      30.39F
LANDER         SUNNY     79  53  40 VRB3      30.30F
RIVERTON       SUNNY     77  56  48 NE8       30.31F
CASPER         SUNNY     82  49  31 NE13      30.28F
DOUGLAS        SUNNY     81  51  35 VRB5      30.27F

$$
WYZ021-027>030-104>119-122000-
SOUTHERN WYOMING

CITY           SKY/WX    TMP DP  RH WIND       PRES   REMARKS
EVANSTON       SUNNY     76  50  40 VRB3      30.41F
KEMMERER       PTCLDY    75  45  33 W8        30.43S
ROCK SPRINGS   SUNNY     78  47  33 VRB5      30.37F
DIXON          MOCLDY    78  54  43 NW3       30.37F
RAWLINS        CLOUDY    75  47  36 E12G18    30.37F
SARATOGA       MOCLDY    73  50  43 N8        30.39F
LARAMIE        LGT RAIN  65  56  72 N8        30.39F
CHEYENNE       MOSUNNY   72  54  53 N13G21    30.34S
TORRINGTON     MOSUNNY   76  60  57 VRB5      30.22S

$$


USA.gov is the U.S. government's official web portal to all federal, state and local government web resources and services.